Location: Devore Heights
(34.2372°N, 117.4156°W)
Time: 23:08:52
(UTC+00:00)

Transit 4A - Visible Passes

Search period start: 11 September 2024 00:00
Search period end: 21 September 2024 00:00
Orbit: 866 x 976 km, 66.8° (Epoch: 11 September)

Date Brightness Start Highest point End Pass type
(mag) Time Alt. Az. Time Alt. Az. Time Alt. Az.
11 Sep 7.7 11:07:43 77° SE 11:07:51 78° ESE 11:13:47 10° NNE visible
11 Sep 9.5 12:51:23 10° W 12:54:51 16° NW 12:58:21 10° N visible
12 Sep 10.5 09:33:30 11° ENE 09:33:30 11° ENE 09:34:03 10° ENE visible
12 Sep 7.7 11:17:01 69° NW 11:17:01 69° NW 11:22:45 10° NNE visible
12 Sep 9.8 13:03:07 10° NW 13:04:16 11° NW 13:05:25 10° NNW visible
13 Sep 10.2 09:42:43 16° ENE 09:42:43 16° ENE 09:44:24 10° NE visible
13 Sep 8.2 11:26:14 45° NW 11:26:14 45° NW 11:31:33 10° NNE visible
14 Sep 9.9 09:51:53 21° ENE 09:51:53 21° ENE 09:54:01 10° NE visible
14 Sep 8.8 11:35:23 30° NW 11:35:23 30° NW 11:40:11 10° N visible
15 Sep 9.8 10:00:59 24° NE 10:00:59 24° NE 10:03:19 10° NE visible
15 Sep 9.3 11:44:29 21° NW 11:44:29 21° NW 11:48:37 10° N visible
16 Sep 9.7 10:10:02 25° NNE 10:10:02 25° NNE 10:12:25 10° NNE visible
16 Sep 9.7 11:53:33 14° NW 11:53:34 14° NW 11:56:38 10° NNW visible
17 Sep 9.7 10:19:03 24° NNE 10:19:03 24° NNE 10:21:19 10° NNE visible
18 Sep 9.8 10:28:01 21° N 10:28:01 21° N 10:30:05 10° NNE visible
19 Sep 9.9 10:36:57 17° N 10:36:57 17° N 10:38:39 10° N visible
20 Sep 10.1 10:45:51 13° NNW 10:45:51 13° NNW 10:46:59 10° N visible
